TimeEDT,TemperatureF,Dew PointF,Humidity,Sea Level PressureIn,VisibilityMPH,Wind Direction,Wind SpeedMPH,Gust SpeedMPH,PrecipitationIn,Events,Conditions,WindDirDegrees,DateUTC
12:53 AM,59.0,55.0,87,30.18,10.0,NE,8.1,-,N/A,,Overcast,40,2013-04-07 04:53:00
1:53 AM,60.1,55.9,86,30.16,10.0,NE,9.2,-,N/A,,Partly Cloudy,50,2013-04-07 05:53:00
2:53 AM,59.0,55.9,90,30.14,10.0,NE,4.6,-,N/A,,Mostly Cloudy,40,2013-04-07 06:53:00
3:53 AM,59.0,55.9,90,30.14,10.0,NNE,5.8,-,N/A,,Clear,20,2013-04-07 07:53:00
4:53 AM,57.9,55.0,90,30.14,10.0,North,4.6,-,N/A,,Clear,10,2013-04-07 08:53:00
5:53 AM,59.0,55.9,90,30.15,10.0,NE,5.8,-,N/A,,Overcast,40,2013-04-07 09:53:00
6:53 AM,60.1,57.0,90,30.17,9.0,NE,6.9,-,N/A,,Overcast,40,2013-04-07 10:53:00
7:53 AM,61.0,57.9,90,30.18,8.0,NE,8.1,-,N/A,,Overcast,40,2013-04-07 11:53:00
8:53 AM,64.9,60.1,84,30.20,9.0,ENE,8.1,-,N/A,,Overcast,60,2013-04-07 12:53:00
9:53 AM,64.0,59.0,84,30.21,10.0,ENE,8.1,-,N/A,,Overcast,60,2013-04-07 13:53:00
10:53 AM,69.1,60.1,73,30.23,10.0,ENE,5.8,-,N/A,,Mostly Cloudy,70,2013-04-07 14:53:00
11:53 AM,70.0,59.0,68,30.23,10.0,East,6.9,-,N/A,,Scattered Clouds,90,2013-04-07 15:53:00
12:53 PM,72.0,57.9,61,30.22,10.0,East,6.9,-,N/A,,Partly Cloudy,80,2013-04-07 16:53:00
1:53 PM,73.0,57.0,57,30.20,10.0,East,10.4,-,N/A,,Clear,100,2013-04-07 17:53:00
2:53 PM,73.0,57.0,57,30.18,10.0,ESE,8.1,-,N/A,,Clear,120,2013-04-07 18:53:00
3:53 PM,72.0,57.0,59,30.16,10.0,ESE,8.1,-,N/A,,Clear,110,2013-04-07 19:53:00
4:53 PM,71.1,59.0,66,30.15,10.0,ESE,9.2,-,N/A,,Clear,110,2013-04-07 20:53:00
5:53 PM,70.0,60.1,71,30.15,10.0,ESE,6.9,-,N/A,,Clear,110,2013-04-07 21:53:00
6:53 PM,68.0,61.0,78,30.15,10.0,ESE,8.1,-,N/A,,Clear,120,2013-04-07 22:53:00
7:53 PM,64.9,61.0,87,30.14,10.0,SE,5.8,-,N/A,,Clear,130,2013-04-07 23:53:00
8:53 PM,64.9,59.0,81,30.15,10.0,SE,5.8,-,N/A,,Clear,130,2013-04-08 00:53:00
9:53 PM,64.0,59.0,84,30.16,10.0,ESE,5.8,-,N/A,,Clear,120,2013-04-08 01:53:00
10:53 PM,63.0,59.0,87,30.17,10.0,Calm,Calm,-,N/A,,Clear,0,2013-04-08 02:53:00
11:53 PM,62.1,57.9,86,30.16,10.0,Calm,Calm,-,N/A,,Clear,0,2013-04-08 03:53:00